Alabaster, AL

8:46 AM CDT on October 18, 2019 (GMT -0500)
Shelby County

Weather History for KEET - August, 2019

Change the Weather History Date:

Tuesday, August 20, 2019

  Actual Average Record
Temperature  
Mean Temperature 83 °F 80 °F  
Max Temperature 95 °F 90 °F 100 °F (1983)
Min Temperature 71 °F 70 °F 56 °F (1976)
Cooling Degree Days 18 15  
Month to date cooling degree days 375 312  
Year to date cooling degree days 1664 1442  
Since 1 June cooling degree days 1267 1173  
Growing Degree Days 33 (Base 50)    
Moisture  
Dew Point 70 °F    
Average Humidity 68    
Maximum Humidity 93    
Minimum Humidity 42    
Precipitation  
Precipitation 0.08 in 0.17 in 1.18 in (2002)
Month to date precipitation 0.79 3.09  
Year to date precipitation 32.07 36.41  
Sea Level Pressure  
Sea Level Pressure 30.06 in    
Wind  
Wind Speed 4 mph (SSE)    
Max Wind Speed 14 mph    
Max Gust Speed 19 mph    
Visibility 9 miles    
Events Rain , Thunderstorm    
T = Trace of Precipitation, MM = Missing Value Source: NWS Daily Summary

Daily Weather History Graph

Daily Weather History Graph

Search for Another Location

Airport or City:

Astronomy

Aug. 20, 2019 Rise Set
Actual Time 6:13 AM CDT 7:27 PM CDT
Civil Twilight 5:47 AM CDT 7:53 PM CDT
Nautical Twilight 5:16 AM CDT 8:23 PM CDT
Astronomical Twilight 4:44 AM CDT 8:55 PM CDT
Moon 10:30 PM CDT (8/20) 10:37 AM CDT (8/20)
Length of Visible Light 14h 05m
Length of Day
13h 14m
Waning Gibbous, 77% of the Moon is Illuminated
Aug 20
Waning Gibbous
Aug 23
Last Quarter
Aug 30
New
Sep 5
First Quarter
Sep 13
Full

Hourly Weather History & Observations

Time (CDT) Temp. Heat Index Dew Point Humidity Pressure Visibility Wind Dir Wind Speed Gust Speed Precip Events Conditions
12:53 AM 75.0 °F - 70.0 °F 84% 30.04 in 10.0 mi Calm Calm - N/A   Clear
1:53 AM 73.0 °F - 70.0 °F 90% 30.05 in 10.0 mi Calm Calm - N/A   Clear
2:53 AM 73.0 °F - 70.0 °F 90% 30.05 in 10.0 mi Calm Calm - N/A   Partly Cloudy
3:53 AM 72.0 °F - 70.0 °F 93% 30.07 in 8.0 mi Calm Calm - N/A   Clear
4:53 AM 71.1 °F - 69.1 °F 93% 30.07 in 8.0 mi Calm Calm - N/A   Clear
5:53 AM 72.0 °F - 69.1 °F 91% 30.08 in 8.0 mi Calm Calm - N/A   Clear
6:53 AM 72.0 °F - 70.0 °F 93% 30.10 in 7.0 mi Calm Calm - N/A   Clear
7:53 AM 77.0 °F - 70.0 °F 79% 30.09 in 9.0 mi Calm Calm - N/A   Clear
8:53 AM 82.0 °F 85.9 °F 70.0 °F 67% 30.08 in 9.0 mi Calm Calm - N/A   Clear
9:53 AM 84.9 °F 88.8 °F 69.1 °F 59% 30.08 in 10.0 mi Calm Calm - N/A   Clear
10:53 AM 89.1 °F 93.7 °F 69.1 °F 52% 30.09 in 10.0 mi Calm Calm - N/A   Clear
11:53 AM 91.9 °F 96.9 °F 69.1 °F 47% 30.09 in 10.0 mi ESE 4.6 mph - N/A   Clear
12:53 PM 91.0 °F 95.2 °F 68.0 °F 47% 30.06 in 10.0 mi Calm Calm - N/A   Overcast
1:45 PM 81.0 °F 85.8 °F 73.0 °F 77% 30.07 in 2.5 mi ENE 9.2 mph - 0.06 in Rain Rain
1:53 PM 79.0 °F - 71.1 °F 77% 30.05 in 4.0 mi ENE 5.8 mph - 0.07 in Rain Light Rain
2:49 PM 89.6 °F 96.2 °F 71.6 °F 55% 30.05 in 10.0 mi Variable 3.5 mph - 0.01 in Thunderstorm Thunderstorm
2:53 PM 89.1 °F 96.0 °F 72.0 °F 57% 30.03 in 10.0 mi SSW 9.2 mph - 0.01 in Thunderstorm Thunderstorm
3:04 PM 89.1 °F 96.0 °F 72.0 °F 57% 30.05 in 10.0 mi South 10.4 mph - N/A Thunderstorm Clear
3:13 PM 89.1 °F 94.1 °F 70.0 °F 53% 30.04 in 10.0 mi SSW 5.8 mph - N/A   Clear
3:53 PM 91.9 °F 95.9 °F 68.0 °F 45% 30.01 in 10.0 mi Calm Calm - N/A   Clear
4:09 PM 93.0 °F 97.4 °F 68.0 °F 44% 30.03 in 10.0 mi Variable 5.8 mph - N/A Thunderstorm Clear
4:30 PM 93.0 °F 96.4 °F 66.9 °F 42% 30.02 in 10.0 mi Calm Calm - N/A   Clear
4:53 PM 95.0 °F 99.5 °F 68.0 °F 41% 29.99 in 10.0 mi Variable 6.9 mph - N/A   Clear
5:53 PM 86.0 °F 90.7 °F 70.0 °F 59% 30.02 in 10.0 mi South 9.2 mph - N/A Thunderstorm Clear
6:53 PM 82.0 °F 85.5 °F 69.1 °F 65% 30.05 in 10.0 mi South 12.7 mph - N/A Thunderstorm Mostly Cloudy
7:02 PM 81.0 °F 84.1 °F 69.1 °F 67% 30.07 in 10.0 mi South 11.5 mph 19.6 mph N/A   Scattered Clouds
7:53 PM 78.1 °F - 71.1 °F 79% 30.07 in 10.0 mi Variable 4.6 mph - N/A   Clear
8:53 PM 77.0 °F - 70.0 °F 79% 30.08 in 10.0 mi South 3.5 mph - N/A   Clear
9:53 PM 75.9 °F - 70.0 °F 82% 30.12 in 10.0 mi NW 3.5 mph - N/A   Clear
10:53 PM 75.0 °F - 71.1 °F 87% 30.11 in 10.0 mi Calm Calm - N/A   Clear
11:53 PM 75.0 °F - 71.1 °F 87% 30.10 in 10.0 mi South 3.5 mph - N/A   Clear